Weather History for Orange City, IA

Change the Weather History Date:

Thursday, January 24, 2013

  Actual Average Record
Temperature  
Mean Temperature 6 °F -  
Max Temperature 17 °F 25 °F 44 °F (2002)
Min Temperature -4 °F 10 °F -16 °F (2008)
Degree Days  
Heating Degree Days 58    
Moisture  
Dew Point -5 °F    
Average Humidity 61    
Maximum Humidity 68    
Minimum Humidity 53    
Precipitation  
Precipitation 0.00 in - - ()
Sea Level Pressure  
Sea Level Pressure 30.35 in    
Wind  
Wind Speed 8 mph (SE)    
Max Wind Speed 17 mph    
Max Gust Speed 23 mph    
Visibility 10 miles    
Events      
Averages and records for this station are not official NWS values.
T = Trace of Precipitation, MM = Missing Value Source: NWS Daily Summary

Daily Weather History Graph

Daily Weather History Graph

Search for Another Location

Airport:

Trip Planner

Search our weather history database for the weather conditions in past years. The results will help you decide how hot, cold, wet, or windy it might be!

Date:

Astronomy

Jan. 24, 2013 Rise Set
Actual Time 7:46 AM CST 5:26 PM CST
Civil Twilight 7:15 AM CST 5:57 PM CST
Nautical Twilight 6:41 AM CST 6:31 PM CST
Astronomical Twilight 6:07 AM CST 7:05 PM CST
Moon 3:29 PM CST (1/24) 5:45 AM CST (1/24)
Length of Visible Light 10h 41m
Length of Day
9h 40m
Waxing Gibbous, 94% of the Moon is Illuminated
Jan 24
Waxing Gibbous
Jan 26
Full
Feb 3
Last Quarter
Feb 10
New
Feb 17
First Quarter

Hourly Weather History & Observations

Time (CST) Temp. Windchill Dew Point Humidity Pressure Visibility Wind Dir Wind Speed Gust Speed Precip Events Conditions
12:15 AM -2.2 °F -14.2 °F -13.0 °F 60% 30.52 in 10.0 mi NE 5.8 mph - N/A   Clear
12:35 AM -2.2 °F -16.8 °F -13.0 °F 60% 30.52 in 10.0 mi ENE 8.1 mph - N/A   Clear
12:55 AM -2.2 °F -15.6 °F -14.8 °F 55% 30.52 in 10.0 mi NNE 6.9 mph - N/A   Clear
1:15 AM -2.2 °F -16.8 °F -14.8 °F 55% 30.52 in 10.0 mi NE 8.1 mph - N/A   Clear
1:35 AM -4.0 °F -16.3 °F -14.8 °F 60% 30.51 in 10.0 mi NE 5.8 mph - N/A   Clear
1:55 AM -4.0 °F -17.8 °F -14.8 °F 60% 30.53 in 10.0 mi ENE 6.9 mph - N/A   Clear
2:15 AM -4.0 °F -14.6 °F -14.8 °F 60% 30.54 in 10.0 mi NE 4.6 mph - N/A   Clear
2:35 AM -2.2 °F -12.5 °F -13.0 °F 60% 30.55 in 10.0 mi ENE 4.6 mph - N/A   Clear
2:55 AM -2.2 °F -12.5 °F -13.0 °F 60% 30.55 in 10.0 mi ENE 4.6 mph - N/A   Clear
3:15 AM -2.2 °F -12.5 °F -13.0 °F 60% 30.56 in 10.0 mi ENE 4.6 mph - N/A   Clear
3:35 AM -2.2 °F - -13.0 °F 60% 30.55 in 10.0 mi Calm Calm - N/A   Clear
3:55 AM -2.2 °F -10.4 °F -13.0 °F 60% 30.54 in 10.0 mi East 3.5 mph - N/A   Clear
4:15 AM -2.2 °F -12.5 °F -13.0 °F 60% 30.53 in 10.0 mi ENE 4.6 mph - N/A   Clear
4:35 AM -2.2 °F - -11.2 °F 66% 30.52 in 10.0 mi Calm Calm - N/A   Clear
4:55 AM -2.2 °F -12.5 °F -11.2 °F 66% 30.52 in 10.0 mi East 4.6 mph - N/A   Clear
5:15 AM -2.2 °F -10.4 °F -11.2 °F 66% 30.51 in 10.0 mi East 3.5 mph - N/A   Clear
5:35 AM -2.2 °F -14.2 °F -11.2 °F 66% 30.50 in 10.0 mi East 5.8 mph - N/A   Clear
5:55 AM -2.2 °F -16.8 °F -11.2 °F 66% 30.49 in 10.0 mi East 8.1 mph - N/A   Clear
6:15 AM -2.2 °F -15.6 °F -11.2 °F 66% 30.50 in 10.0 mi East 6.9 mph - N/A   Clear
6:35 AM -2.2 °F -18.0 °F -11.2 °F 66% 30.50 in 10.0 mi East 9.2 mph - N/A   Clear
6:55 AM -2.2 °F -16.8 °F -11.2 °F 66% 30.51 in 10.0 mi East 8.1 mph - N/A   Clear
7:15 AM -2.2 °F -18.0 °F -11.2 °F 66% 30.49 in 10.0 mi East 9.2 mph - N/A   Clear
7:35 AM -0.4 °F -14.7 °F -9.4 °F 66% 30.48 in 10.0 mi East 8.1 mph - N/A   Clear
7:55 AM -0.4 °F -15.7 °F -9.4 °F 66% 30.50 in 10.0 mi ESE 9.2 mph - N/A   Clear
8:15 AM -0.4 °F -16.7 °F -9.4 °F 66% 30.49 in 10.0 mi ESE 10.4 mph - N/A   Clear
8:35 AM -0.4 °F -15.7 °F -9.4 °F 66% 30.48 in 10.0 mi ESE 9.2 mph - N/A   Clear
8:55 AM -0.4 °F -13.4 °F -9.4 °F 66% 30.48 in 10.0 mi SE 6.9 mph - N/A   Clear
9:15 AM 1.4 °F -14.5 °F -7.6 °F 66% 30.47 in 10.0 mi SE 10.4 mph - N/A   Clear
9:35 AM 1.4 °F -14.5 °F -7.6 °F 66% 30.47 in 10.0 mi ESE 10.4 mph 16.1 mph N/A   Clear
9:55 AM 1.4 °F -15.3 °F -7.6 °F 66% 30.46 in 10.0 mi SE 11.5 mph 16.1 mph N/A   Clear
10:15 AM 3.2 °F -12.2 °F -7.6 °F 61% 30.47 in 10.0 mi SE 10.4 mph 17.3 mph N/A   Scattered Clouds
10:35 AM 3.2 °F -13.1 °F -7.6 °F 61% 30.44 in 10.0 mi SE 11.5 mph 17.3 mph N/A   Clear
10:55 AM 3.2 °F -13.9 °F -7.6 °F 61% 30.44 in 10.0 mi SSE 12.7 mph 18.4 mph N/A   Clear
11:15 AM 5.0 °F -12.3 °F -5.8 °F 61% 30.43 in 10.0 mi SSE 13.8 mph 18.4 mph N/A   Clear
11:35 AM 5.0 °F -10.8 °F -5.8 °F 61% 30.43 in 10.0 mi SSE 11.5 mph 16.1 mph N/A   Clear
11:55 AM 6.8 °F -8.6 °F -5.8 °F 56% 30.41 in 10.0 mi SSE 11.5 mph 18.4 mph N/A   Clear
12:15 PM 6.8 °F -10.0 °F -5.8 °F 56% 30.40 in 10.0 mi SSE 13.8 mph 18.4 mph N/A   Clear
12:35 PM 6.8 °F -9.3 °F -4.0 °F 61% 30.37 in 10.0 mi SSE 12.7 mph 17.3 mph N/A   Clear
12:55 PM 8.6 °F -4.7 °F -2.2 °F 62% 30.35 in 10.0 mi SE 9.2 mph - N/A   Clear
1:15 PM 8.6 °F -7.7 °F -2.2 °F 62% 30.33 in 10.0 mi SSE 13.8 mph 18.4 mph N/A   Clear
1:35 PM 8.6 °F -7.7 °F -2.2 °F 62% 30.32 in 10.0 mi SSE 13.8 mph 19.6 mph N/A   Clear
1:55 PM 10.4 °F -5.4 °F -2.2 °F 57% 30.31 in 10.0 mi SSE 13.8 mph 18.4 mph N/A   Clear
2:15 PM 10.4 °F -4.8 °F -2.2 °F 57% 30.28 in 10.0 mi SSE 12.7 mph 18.4 mph N/A   Clear
2:35 PM 10.4 °F -3.3 °F -2.2 °F 57% 30.27 in 10.0 mi SSE 10.4 mph 17.3 mph N/A   Clear
2:55 PM 10.4 °F -5.4 °F -0.4 °F 62% 30.25 in 10.0 mi SSE 13.8 mph 19.6 mph N/A   Mostly Cloudy
3:15 PM 10.4 °F -4.1 °F -0.4 °F 62% 30.25 in 10.0 mi SSE 11.5 mph 18.4 mph N/A   Overcast
3:35 PM 12.2 °F -3.1 °F -0.4 °F 57% 30.23 in 10.0 mi SSE 13.8 mph - N/A   Overcast
3:55 PM 12.2 °F -3.1 °F -0.4 °F 57% 30.21 in 10.0 mi SSE 13.8 mph - N/A   Overcast
4:15 PM 12.2 °F -3.1 °F -0.4 °F 57% 30.20 in 10.0 mi SE 13.8 mph 18.4 mph N/A   Overcast
4:35 PM 12.2 °F -2.5 °F -0.4 °F 57% 30.20 in 10.0 mi SSE 12.7 mph 21.9 mph N/A   Overcast
4:55 PM 12.2 °F -1.8 °F -0.4 °F 57% 30.19 in 10.0 mi SSE 11.5 mph 17.3 mph N/A   Overcast
5:15 PM 14.0 °F 1.2 °F 1.4 °F 57% 30.18 in 10.0 mi SSE 10.4 mph 16.1 mph N/A   Overcast
5:35 PM 14.0 °F 0.5 °F 1.4 °F 57% 30.17 in 10.0 mi SSE 11.5 mph 18.4 mph N/A   Overcast
5:55 PM 14.0 °F 2.0 °F 1.4 °F 57% 30.16 in 10.0 mi SSE 9.2 mph 17.3 mph N/A   Overcast
6:15 PM 15.8 °F 1.4 °F 1.4 °F 53% 30.13 in 10.0 mi SSE 13.8 mph 21.9 mph N/A   Overcast
6:35 PM 15.8 °F 3.4 °F 1.4 °F 53% 30.14 in 10.0 mi SSE 10.4 mph 17.3 mph N/A   Overcast
6:55 PM 15.8 °F 3.4 °F 1.4 °F 53% 30.15 in 10.0 mi SSE 10.4 mph - N/A   Overcast
7:15 PM 15.8 °F 3.4 °F 1.4 °F 53% 30.14 in 10.0 mi SSE 10.4 mph - N/A   Overcast
7:35 PM 15.8 °F 2.7 °F 1.4 °F 53% 30.15 in 10.0 mi SSE 11.5 mph - N/A   Overcast
7:55 PM 15.8 °F 2.7 °F 3.2 °F 58% 30.14 in 10.0 mi South 11.5 mph - N/A   Overcast
8:15 PM 15.8 °F 2.7 °F 3.2 °F 58% 30.13 in 10.0 mi South 11.5 mph - N/A   Overcast
8:35 PM 15.8 °F 2.7 °F 3.2 °F 58% 30.16 in 10.0 mi South 11.5 mph - N/A   Overcast
8:55 PM 15.8 °F 6.1 °F 3.2 °F 58% 30.15 in 10.0 mi South 6.9 mph - N/A   Scattered Clouds
9:15 PM 15.8 °F 4.2 °F 5.0 °F 62% 30.15 in 10.0 mi South 9.2 mph - N/A   Clear
9:35 PM 15.8 °F 2.7 °F 6.8 °F 68% 30.15 in 10.0 mi SSW 11.5 mph - N/A   Scattered Clouds
9:55 PM 15.8 °F 3.4 °F 5.0 °F 62% 30.15 in 10.0 mi SSW 10.4 mph - N/A   Scattered Clouds
10:15 PM 17.6 °F 5.0 °F 5.0 °F 58% 30.15 in 10.0 mi SSW 11.5 mph - N/A   Scattered Clouds
10:35 PM 17.6 °F 5.0 °F 5.0 °F 58% 30.14 in 10.0 mi SSW 11.5 mph - N/A   Scattered Clouds
10:55 PM 15.8 °F 2.1 °F 5.0 °F 62% 30.12 in 10.0 mi South 12.7 mph - N/A   Clear
11:15 PM 17.6 °F 4.3 °F 5.0 °F 58% 30.11 in 10.0 mi South 12.7 mph - N/A   Scattered Clouds
11:35 PM 15.8 °F 0.9 °F 6.8 °F 68% 30.10 in 10.0 mi SSW 15.0 mph - N/A   Scattered Clouds
11:55 PM 15.8 °F -0.2 °F 6.8 °F 68% 30.09 in 10.0 mi SSW 17.3 mph 23.0 mph N/A   Scattered Clouds